• In Spain
  • List of Countries
  • For 7 days
  • Water Temperature
  • Satellite Maps
  • Weather Map
  • Weather Widgets
  • user-avatar
    Login

    Hourly Weather Dynow

    Today, 24 November, Friday

    Time Temperature Precipitation Wind Pressure Humidity
    00:00 +3°C° 0 mm 4 mps 741 mmHg 89%
    01:00 +3°C° 0 mm 3 mps 741 mmHg 90%
    02:00 +3°C° 0 mm 3 mps 741 mmHg 90%
    03:00 +3°C° 0 mm 3 mps 741 mmHg 90%
    04:00 +3°C° 0 mm 3 mps 741 mmHg 91%
    05:00 +3°C° 0 mm 3 mps 741 mmHg 91%
    06:00 +3°C° 0 mm 3 mps 741 mmHg 91%
    07:00 +3°C° 0 mm 2 mps 741 mmHg 91%
    08:00 +4°C° 0 mm 3 mps 741 mmHg 87%
    09:00 +5°C° 0 mm 3 mps 741 mmHg 84%
    10:00 +7°C° 0 mm 4 mps 741 mmHg 80%
    11:00 +7°C° 0 mm 4 mps 741 mmHg 79%
    12:00 +8°C° 0 mm 4 mps 741 mmHg 77%
    13:00 +10°C° 0 mm 4 mps 741 mmHg 75%
    14:00 +8°C° 0 mm 4 mps 741 mmHg 80%
    15:00 +7°C° 0 mm 4 mps 741 mmHg 84%
    16:00 +6°C° 0 mm 4 mps 741 mmHg 88%
    17:00 +6°C° 0 mm 4 mps 741 mmHg 89%
    18:00 +6°C° 0 mm 4 mps 741 mmHg 90%
    19:00 +6°C° 0 mm 4 mps 741 mmHg 90%
    20:00 +6°C° 0 mm 4 mps 741 mmHg 90%
    21:00 +6°C° 0 mm 4 mps 741 mmHg 90%
    22:00 +6°C° 0 mm 4 mps 741 mmHg 90%
    23:00 +6°C° 0 mm 4 mps 741 mmHg 90%

    Tomorrow, 25 November, Saturday

    Time Temperature Precipitation Wind Pressure Humidity
    00:00 +6°C° 0 mm 4 mps 741 mmHg 90%
    01:00 +6°C° 0 mm 4 mps 741 mmHg 89%
    02:00 +6°C° 0 mm 4 mps 741 mmHg 90%
    03:00 +6°C° 0 mm 4 mps 741 mmHg 90%
    04:00 +5°C° 0 mm 4 mps 741 mmHg 90%
    05:00 +5°C° 0 mm 4 mps 741 mmHg 89%
    06:00 +5°C° 0 mm 5 mps 740 mmHg 89%
    07:00 +5°C° 0 mm 5 mps 740 mmHg 89%
    08:00 +6°C° 0 mm 5 mps 740 mmHg 85%
    09:00 +7°C° 0 mm 5 mps 739 mmHg 81%
    10:00 +8°C° 0 mm 6 mps 739 mmHg 77%
    11:00 +8°C° 0 mm 6 mps 738 mmHg 75%
    12:00 +9°C° 0 mm 6 mps 738 mmHg 73%
    13:00 +9°C° 0 mm 7 mps 737 mmHg 72%
    14:00 +8°C° 0 mm 6 mps 737 mmHg 74%
    15:00 +7°C° 0 mm 6 mps 737 mmHg 76%
    16:00 +7°C° 0 mm 6 mps 736 mmHg 79%
    17:00 +7°C° 0 mm 6 mps 736 mmHg 80%
    18:00 +7°C° 0 mm 6 mps 736 mmHg 80%
    19:00 +7°C° 0 mm 6 mps 736 mmHg 81%
    20:00 +7°C° 0 mm 6 mps 736 mmHg 80%
    21:00 +7°C° 0 mm 6 mps 736 mmHg 79%
    22:00 +7°C° 0 mm 6 mps 736 mmHg 77%
    23:00 +7°C° 0.1 mm 6 mps 736 mmHg 79%

    Day after tomorrow, 26 November, Sunday

    Time Temperature Precipitation Wind Pressure Humidity
    00:00 +7°C° 0.1 mm 5 mps 736 mmHg 81%
    01:00 +7°C° 0.1 mm 5 mps 736 mmHg 82%
    02:00 +7°C° 0.1 mm 4 mps 736 mmHg 84%
    03:00 +6°C° 0.1 mm 4 mps 736 mmHg 86%
    04:00 +7°C° 0.1 mm 3 mps 737 mmHg 87%
    05:00 +7°C° 0.7 mm 3 mps 737 mmHg 88%
    06:00 +5°C° 0.7 mm 3 mps 738 mmHg 89%
    07:00 +5°C° 0.7 mm 3 mps 738 mmHg 89%
    08:00 +5°C° 0.7 mm 3 mps 739 mmHg 88%
    09:00 +4°C° 0.7 mm 3 mps 739 mmHg 87%
    10:00 +4°C° 0.7 mm 3 mps 740 mmHg 85%
    11:00 +4°C° 0.6 mm 4 mps 740 mmHg 85%
    12:00 +4°C° 0.6 mm 4 mps 740 mmHg 85%
    13:00 +4°C° 0.6 mm 4 mps 740 mmHg 85%
    14:00 +4°C° 0.8 mm 4 mps 740 mmHg 85%
    15:00 +3°C° 0.8 mm 4 mps 740 mmHg 85%
    16:00 +3°C° 0.8 mm 4 mps 741 mmHg 85%
    17:00 +3°C° 0.8 mm 4 mps 741 mmHg 85%
    18:00 +3°C° 0.8 mm 4 mps 741 mmHg 85%
    19:00 +1°C° 0.8 mm 4 mps 741 mmHg 85%
    20:00 +1°C° 0.4 mm 4 mps 742 mmHg 85%
    21:00 +1°C° 0.4 mm 4 mps 742 mmHg 86%
    22:00 +1°C° 0.4 mm 4 mps 742 mmHg 86%
    23:00 0°C° 0.1 mm 4 mps 742 mmHg 87%

    27 November, Monday

    Time Temperature Precipitation Wind Pressure Humidity
    00:00 0°C° 0.1 mm 4 mps 743 mmHg 88%
    01:00 0°C° 0.1 mm 4 mps 743 mmHg 89%
    02:00 0°C° 0 mm 4 mps 743 mmHg 89%
    03:00 -1°C° 0 mm 4 mps 743 mmHg 89%
    04:00 -1°C° 0 mm 4 mps 743 mmHg 89%
    05:00 0°C° 0 mm 3 mps 744 mmHg 90%
    06:00 -1°C° 0 mm 3 mps 744 mmHg 91%
    07:00 -1°C° 0 mm 3 mps 744 mmHg 92%
    08:00 -1°C° 0 mm 3 mps 745 mmHg 89%
    09:00 0°C° 0 mm 3 mps 745 mmHg 87%
    10:00 0°C° 0 mm 3 mps 745 mmHg 84%
    11:00 +1°C° 0 mm 3 mps 745 mmHg 82%
    12:00 +1°C° 0 mm 3 mps 745 mmHg 79%
    13:00 +1°C° 0 mm 4 mps 744 mmHg 77%
    14:00 +1°C° 0 mm 3 mps 745 mmHg 80%
    15:00 +1°C° 0 mm 2 mps 745 mmHg 83%
    16:00 +1°C° 0 mm 2 mps 745 mmHg 86%
    17:00 +1°C° 0 mm 2 mps 745 mmHg 87%
    18:00 +1°C° 0 mm 2 mps 745 mmHg 88%
    19:00 -1°C° 0 mm 2 mps 745 mmHg 89%
    20:00 +2°C° 0 mm 1 mps 745 mmHg 88%
    21:00 +2°C° 0 mm 1 mps 745 mmHg 87%
    22:00 +2°C° 0 mm 1 mps 745 mmHg 86%
    23:00 +2°C° 0 mm 1 mps 745 mmHg 86%

    28 November, Tuesday

    Time Temperature Precipitation Wind Pressure Humidity
    00:00 +2°C° 0 mm 1 mps 745 mmHg 86%
    01:00 +2°C° 0 mm 1 mps 744 mmHg 86%
    02:00 +1°C° 0 mm 1 mps 744 mmHg 87%
    03:00 +1°C° 0 mm 1 mps 744 mmHg 87%
    04:00 0°C° 0 mm 1 mps 743 mmHg 88%
    05:00 0°C° 0 mm 1 mps 743 mmHg 88%
    06:00 0°C° 0 mm 1 mps 743 mmHg 89%
    07:00 -1°C° 0 mm 1 mps 743 mmHg 89%
    08:00 -1°C° 0 mm 2 mps 743 mmHg 84%
    09:00 +1°C° 0 mm 2 mps 743 mmHg 79%
    10:00 +2°C° 0 mm 2 mps 742 mmHg 74%
    11:00 +2°C° 0 mm 2 mps 742 mmHg 73%
    12:00 +3°C° 0 mm 2 mps 741 mmHg 71%
    13:00 +3°C° 0 mm 2 mps 741 mmHg 69%
    14:00 +2°C° 0 mm 2 mps 740 mmHg 75%
    15:00 +1°C° 0 mm 2 mps 740 mmHg 80%
    16:00 -1°C° 0 mm 2 mps 740 mmHg 86%
    17:00 -1°C° 0 mm 2 mps 739 mmHg 86%
    18:00 -2°C° 0 mm 2 mps 739 mmHg 87%
    19:00 -2°C° 0 mm 2 mps 739 mmHg 87%
    20:00 -2°C° 0 mm 2 mps 739 mmHg 86%
    21:00 -2°C° 0 mm 2 mps 738 mmHg 84%
    22:00 -2°C° 0 mm 3 mps 738 mmHg 83%
    23:00 -2°C° 0 mm 3 mps 738 mmHg 81%

    29 November, Wednesday

    Time Temperature Precipitation Wind Pressure Humidity
    00:00 -2°C° 0 mm 3 mps 737 mmHg 79%
    01:00 -2°C° 0 mm 3 mps 737 mmHg 77%
    02:00 -2°C° 0 mm 3 mps 737 mmHg 75%
    03:00 -2°C° 0 mm 3 mps 737 mmHg 74%
    04:00 -1°C° 0 mm 3 mps 736 mmHg 73%
    05:00 -1°C° 0 mm 3 mps 736 mmHg 73%
    06:00 -1°C° 0 mm 3 mps 736 mmHg 73%
    07:00 -1°C° 0 mm 3 mps 736 mmHg 74%
    08:00 -1°C° 0 mm 4 mps 736 mmHg 71%
    09:00 0°C° 0 mm 4 mps 736 mmHg 69%
    10:00 +1°C° 0 mm 5 mps 735 mmHg 67%
    11:00 +1°C° 0 mm 5 mps 735 mmHg 68%
    12:00 +1°C° 0 mm 5 mps 735 mmHg 69%
    13:00 +2°C° 0 mm 5 mps 734 mmHg 70%
    14:00 +1°C° 0 mm 5 mps 734 mmHg 72%
    15:00 0°C° 0 mm 5 mps 734 mmHg 75%
    16:00 -1°C° 0 mm 5 mps 734 mmHg 78%
    17:00 -1°C° 0 mm 5 mps 734 mmHg 79%
    18:00 -1°C° 0 mm 5 mps 735 mmHg 81%
    19:00 -2°C° 0 mm 4 mps 735 mmHg 83%
    20:00 -2°C° 0 mm 4 mps 735 mmHg 83%
    21:00 -2°C° 0 mm 4 mps 735 mmHg 84%
    22:00 -1°C° 0 mm 3 mps 735 mmHg 85%
    23:00 -1°C° 0 mm 3 mps 735 mmHg 85%
    Show more